User: anonymous   Login
Location: Unspecified
(0.0000°N, 0.0000°E)
Time: 11:07:12
(UTC+00:00)
Language:

JUGNU - Orbit

View from above orbital plane
View from above orbital plane
View from above satellite
View from above satellite

Ground track
Ground track

The orbit data is extracted from the following two-line orbital elements,

1 37839U 11058B   19349.15415873  .00000306  00000-0  21336-4 0  9993
2 37839  19.9622 326.4855 0019103 145.0730 302.6195 14.12666803422661
Epoch (UTC): 15 December 2019 03:41:59
Eccentricity: 0.0019103
inclination: 19.9622°
perigee height: 836 km
apogee height: 864 km
right ascension of ascending node: 326.4855°
argument of perigee: 145.0730°
revolutions per day: 14.12666803
mean anomaly at epoch: 302.6195°
orbit number at epoch: 42266

The dashed part of the orbit path shows where the satellite is in the earth's shadow,  

DLR